User: anonymous   Login
Location: Unspecified
(0.0000°N, 0.0000°E)
Time: 03:34:09
(UTC+00:00)
Language:

USA 238 DEB - Orbit

View from above orbital plane
View from above orbital plane
View from above satellite
View from above satellite

Ground track
Ground track

The orbit data is extracted from the following two-line orbital elements,

1 38773U 12048P   17346.73962362 0.00000000  00000-0  00000-0 0    05
2 38773  63.4356 206.8058 0040000   5.2696 354.7304 13.40739890    08
Epoch (UTC): 12 December 2017 17:45:03
Eccentricity: 0.0040000
inclination: 63.4356°
perigee height: 1076 km
apogee height: 1136 km
right ascension of ascending node: 206.8058°
argument of perigee: 5.2696°
revolutions per day: 13.40739890
mean anomaly at epoch: 354.7304°
orbit number at epoch: 0

The dashed part of the orbit path shows where the satellite is in the earth's shadow,  

DLR